Pittsburgh, PA

4:53 PM EDT on September 16, 2019 (GMT -0400)
Pittsburgh International

Weather History for KPIT - August, 2019

Change the Weather History Date:

Friday, August 16, 2019

  Actual Average Record
Temperature  
Mean Temperature 73 °F 72 °F  
Max Temperature 82 °F 82 °F 94 °F (1965)
Min Temperature 64 °F 62 °F 46 °F (1964)
Degree Days  
Heating Degree Days 0 0  
Month to date heating degree days 0 0  
Since 1 June heating degree days 35 42  
Since 1 July heating degree days 0 4  
Cooling Degree Days 8 7  
Month to date cooling degree days 127 116  
Year to date cooling degree days 664 559  
Since 1 June cooling degree days 581 507  
Growing Degree Days 23 (Base 50)    
Moisture  
Dew Point 63 °F    
Average Humidity 70    
Maximum Humidity 93    
Minimum Humidity 46    
Precipitation  
Precipitation 0.00 in 0.12 in 2.25 in (1952)
Month to date precipitation 1.48 1.87  
Year to date precipitation 33.79 25.10  
Snow  
Snow 0.00 in 0.00 in 0.00 in (2002)
Month to date snowfall 0.0 0.0  
Since 1 July snowfall 0.0 0.0  
Snow Depth 0.00 in    
Sea Level Pressure  
Sea Level Pressure 29.99 in    
Wind  
Wind Speed 4 mph (WSW)    
Max Wind Speed 14 mph    
Max Gust Speed 18 mph    
Visibility 10 miles    
Events      
T = Trace of Precipitation, MM = Missing Value Source: NWS Daily Summary

Daily Weather History Graph

Daily Weather History Graph

Search for Another Location

Airport or City:

Astronomy

Aug. 16, 2019 Rise Set
Actual Time 6:32 AM EDT 8:17 PM EDT
Civil Twilight 6:03 AM EDT 8:46 PM EDT
Nautical Twilight 5:27 AM EDT 9:21 PM EDT
Astronomical Twilight 4:49 AM EDT 9:59 PM EDT
Moon 9:15 PM EDT 7:22 AM EDT
Length of Visible Light 14h 43m
Length of Day
13h 44m
Full, 99% of the Moon is Illuminated
Aug 16
Full
Aug 23
Last Quarter
Aug 30
New
Sep 5
First Quarter
Sep 14
Full

Hourly Weather History & Observations

Time (EDT) Temp. Heat Index Dew Point Humidity Pressure Visibility Wind Dir Wind Speed Gust Speed Precip Events Conditions
12:51 AM 68.0 °F - 66.9 °F 96% 29.96 in 9.0 mi Calm Calm - N/A   Scattered Clouds
1:51 AM 68.0 °F - 66.0 °F 93% 29.96 in 9.0 mi Calm Calm - N/A   Scattered Clouds
2:51 AM 66.9 °F - 64.9 °F 93% 29.97 in 8.0 mi Calm Calm - N/A   Scattered Clouds
3:51 AM 66.0 °F - 64.0 °F 93% 29.97 in 9.0 mi Calm Calm - N/A   Partly Cloudy
4:51 AM 66.0 °F - 63.0 °F 90% 29.97 in 9.0 mi Calm Calm - N/A   Partly Cloudy
5:51 AM 64.9 °F - 63.0 °F 93% 29.98 in 10.0 mi Calm Calm - N/A   Partly Cloudy
6:51 AM 64.9 °F - 62.1 °F 90% 29.98 in 10.0 mi West 3.5 mph - N/A   Mostly Cloudy
7:51 AM 66.9 °F - 63.0 °F 87% 29.99 in 10.0 mi Calm Calm - N/A   Overcast
8:51 AM 70.0 °F - 64.9 °F 84% 30.00 in 10.0 mi WSW 4.6 mph - N/A   Overcast
9:51 AM 73.9 °F - 64.9 °F 73% 30.00 in 10.0 mi West 4.6 mph - N/A   Overcast
10:51 AM 75.9 °F - 63.0 °F 64% 30.01 in 10.0 mi WSW 11.5 mph - N/A   Mostly Cloudy
11:51 AM 77.0 °F - 62.1 °F 60% 30.02 in 10.0 mi WSW 10.4 mph - N/A   Mostly Cloudy
12:51 PM 79.0 °F - 63.0 °F 58% 30.02 in 10.0 mi Variable 6.9 mph - N/A   Mostly Cloudy
1:51 PM 80.1 °F 81.2 °F 62.1 °F 54% 30.02 in 10.0 mi West 9.2 mph - N/A   Mostly Cloudy
2:51 PM 82.0 °F 82.1 °F 59.0 °F 45% 30.00 in 10.0 mi WSW 8.1 mph - N/A   Mostly Cloudy
3:51 PM 82.0 °F 82.1 °F 59.0 °F 45% 29.99 in 10.0 mi WSW 9.2 mph - N/A   Mostly Cloudy
4:51 PM 81.0 °F 81.7 °F 61.0 °F 50% 29.99 in 10.0 mi West 9.2 mph - N/A   Mostly Cloudy
5:51 PM 81.0 °F 81.7 °F 61.0 °F 50% 29.99 in 10.0 mi West 9.2 mph - N/A   Mostly Cloudy
6:51 PM 79.0 °F - 61.0 °F 54% 29.98 in 10.0 mi WSW 5.8 mph - N/A   Scattered Clouds
7:51 PM 75.9 °F - 61.0 °F 60% 29.98 in 10.0 mi West 4.6 mph - N/A   Scattered Clouds
8:51 PM 75.0 °F - 62.1 °F 64% 29.99 in 10.0 mi West 3.5 mph - N/A   Scattered Clouds
9:51 PM 72.0 °F - 62.1 °F 71% 30.01 in 10.0 mi Calm Calm - N/A   Scattered Clouds
10:51 PM 70.0 °F - 63.0 °F 78% 30.01 in 10.0 mi Calm Calm - N/A   Partly Cloudy
11:51 PM 66.9 °F - 62.1 °F 84% 30.01 in 10.0 mi Calm Calm - N/A   Partly Cloudy